Regional Weather Roundup
Issued by NWS Memphis, TN

Home | Current Version | Previous Version | Text Only | Print | Product List | Glossary On
Versions: 1 2 3 4 5 6 7 8 9 10 11 12 13 14 15 16 17 18 19 20 21 22 23 24 25 26 27 28 29 30 31 32 33 34 35 36 37 38 39 40 41 42 43 44 45 46 47 48 49 50
000
ASUS44 KMEG 252210
RWRMEG
MEMPHIS CWA HOURLY WEATHER ROUNDUP
NATIONAL WEATHER SERVICE MEMPHIS TN
500 PM CDT SAT OCT 25 2014

...WEST TENNESSEE...

CITY           SKY/WX    TMP DP  RH WIND       PRES   REMARKS
MEMPHIS INTL   SUNNY     81  63  54 SW6       30.02F
NWS MEMPHIS      N/A     82 N/A N/A MISG        N/A
JACKSON        SUNNY     80  62  54 W6        30.01S
LEXINGTON      PTSUNNY   79  63  57 W5        30.01R
SAVANNAH       MOSUNNY   79  64  61 W6        30.02S
DYERSBURG      SUNNY     81  57  44 SW7       30.01F
UNION CITY     SUNNY     79  63  57 NW7       29.99F
PARIS          SUNNY     75  63  64 VRB3      30.01S
HUNTINGDON     SUNNY     77  62  59 W7        30.01R


...EASTERN ARKANSAS...

CITY           SKY/WX    TMP DP  RH WIND       PRES   REMARKS
JONESBORO      SUNNY     83  63  50 SW8       30.00S
WEST MEMPHIS   SUNNY     82  64  54 SW6       30.00S
BATESVILLE     SUNNY     88  64  45 CALM      30.00S
NEWPORT        SUNNY     85  65  51 SW7       30.01S
WALNUT RIDGE   SUNNY     82  63  51 SW3       29.99S
BLYTHEVILLE    SUNNY     83  64  52 VRB5      30.00S
SEARCY         SUNNY     84  65  52 SW5       30.02F
STUTTGART      SUNNY     84  63  48 SW9       30.04R
PINE BLUFF     SUNNY     81  64  56 SW9       30.04S
MONTICELLO     SUNNY     81  64  56 W5        30.05S


...NORTH MISSISSIPPI...

CITY           SKY/WX    TMP DP  RH WIND       PRES   REMARKS
TUPELO         SUNNY     80  62  54 W6        30.03S
OXFORD         SUNNY     77  61  57 SW5       30.06S
OLIVE BRANCH   SUNNY     79  64  61 W6        30.02F
TUNICA         SUNNY     81  63  54 SW5       30.03S
CLARKSDALE     SUNNY     82  64  54 W8        30.03F
CORINTH        MOSUNNY   81  63  54 W7        30.02S
GRENADA          N/A    N/A N/A N/A MISG        N/A
GREENWOOD      SUNNY     80  62  54 CALM      30.05S
COLUMBUS       SUNNY     79  60  52 W7        30.04S
STARKVILLE     FAIR      79  63  57 W3        30.05S
GOLDEN TRIANGL MOSUNNY   81  61  50 W7        30.04S


...SOUTHEAST MISSOURI...

CITY           SKY/WX    TMP DP  RH WIND       PRES   REMARKS
WEST PLAINS    SUNNY     82  60  47 W5        30.04S
POPLAR BLUFF   SUNNY     82  63  52 S6        29.99S HAZE
CAPE GIRARDEAU SUNNY     82  59  45 CALM      29.99S


...NORTHWEST ALABAMA...

CITY           SKY/WX    TMP DP  RH WIND       PRES   REMARKS
MUSCLE SHOALS  PTSUNNY   78  60  53 W8        30.03S


...MIDDLE TENNESSEE...

CITY           SKY/WX    TMP DP  RH WIND       PRES   REMARKS
NASHVILLE      MOSUNNY   78  62  57 W7        30.00R
CLARKSVILLE    SUNNY     77  62  59 W7        29.99F
COLUMBIA       MOSUNNY   79  64  61 VRB3      30.00R


...WESTERN KENTUCKY...

CITY           SKY/WX    TMP DP  RH WIND       PRES   REMARKS
PADUCAH        SUNNY     79  60  52 W6        29.99S
FORT CAMPBELL  SUNNY     76  62  61 NW6       30.00R


...CENTRAL ARKANSAS...

CITY           SKY/WX    TMP DP  RH WIND       PRES   REMARKS
LITTLE ROCK    SUNNY     85  62  46 SW8       30.02S


SKY/WX REPORTED AS FAIR MEANS FEW OR NO CLOUDS BELOW
12 THOUSAND FEET.




USA.gov is the U.S. government's official web portal to all federal, state and local government web resources and services.